Location: Bottens
(46.6171°N, 6.6605°E)
Time: 02:57:22
(UTC+00:00)

Aureole 3 Rocket - Pass Details

Date: 20 June 2021
Orbit: 399 x 1738 km, 82.5° (Epoch: 04 August)

Event Time Altitude Azimuth Distance (km) Brightness Sun altitude
Rises 00:32:56 0° 360° (N) 2,585 7.7 -18.7°
Reaches altitude 10° 00:34:56 10° 10° (N) 1,812 6.7 -18.6°
Maximum altitude 00:38:36 36° 79° (ENE) 1,023 4.4 -18.5°
Enters shadow 00:42:29 14° 141° (SE) 2,056 5.4 -18.3°
